User: anonymous   Login
Location: Caltech
(34.1382°N, 118.1253°W)
Time: 00:40:42
(UTC-08:00)
Language:

Meteor 2-4 Rocket - Orbit

View from above orbital plane
View from above orbital plane
View from above satellite
View from above satellite

Ground track
Ground track

The orbit data is extracted from the following two-line orbital elements,

1 11289U 79021B   15031.19727784  .00000085  00000-0  38564-4 0  8223
2 11289 081.2473 290.9174 0075808 175.7666 347.0582 14.11481483848381
Epoch (UTC): 31 January 2015 04:44:04
Eccentricity: 0.0075808
inclination: 81.2473°
perigee height: 799 km
apogee height: 909 km
right ascension of ascending node: 290.9174°
argument of perigee: 175.7666°
revolutions per day: 14.11481483
mean anomaly at epoch: 347.0582°
orbit number at epoch: 84838

The dashed part of the orbit path shows where the satellite is in the earth's shadow,  

DLR